Weather in Playa Del Carmen

Mexico     20°38′25″N   87°04′26″W
temp.,
°C
wind,
m/s
gust,
m/s
humid.,
%
clouds,
%
prec.,
mm/h
press.,
hPa
HPBL,
m
24 june, thu
thu2401:00+26e25915 0.1 1017284
04:00+25e249410 0.1 1015188
07:00+26ene13914 0.1 1016200
10:00+30e34622 0.1 10171250
13:00+32e34555 0.1 10161572
16:00+31ene44571 0.0 10141275
19:00+27ene36785 0.0 1014582
22:00+26ne37868 0.3 1015391
25 june, fri
fri2501:00+25ne23885 0.3 1014156
04:00+24ne13885 0.0 1012161
07:00+24ne128815 1.3 1013165
10:00+28ene247725 2.6 1014744
13:00+29e337415 3.4 10131013
16:00+30e346449 1.4 1011908
19:00+27ene257588 1.6 1011372
22:00+24ese249573 2.8 1013154
26 june, sat
sat2601:00+24se2595100 7.3 1012183
04:00+24sse2495100 0.1 1011205
07:00+24sse1492100 0.1 1012166
10:00+28se3474100 0.4 1013933
13:00+28se357898 2.6 1013925
16:00+28se3475100 1.6 1012918
19:00+26ese268691 2.1 1011321
22:00+25ese25915 0.1 1012213
27 june, sun
sun2701:00+24se269497 0.6 1012239
04:00+24se239438 0.1 1011160
07:00+25se1291100 0.2 1012141
10:00+28se2485100 2.5 1013719
13:00+30e3462100 3.3 10131289
16:00+30e3460100 0.0 10121338
19:00+27e2579100 0.0 1013400
22:00+25e2488100 0.0 1013193
28 june, mon
mon2801:00+25ese2490100 0.0 1013175
04:00+25ese1288100 0.0 1012147
07:00+25e2589100 0.2 1013221
10:00+28ese247695 0.9 1014866
13:00+31ese3461100 1.4 10141380
16:00+30ese3464100 0.1 10121249
19:00+26e2683100 0.3 1013408
22:00+25ese2790100 0.1 1014330